Torna al catalogo

SL-12 R/B(2)

AttivoGEO
NORAD 17705·ROCKET BODY·🇷🇺 Russia

Lanciato Mar 19, 1987 da Baikonur Cosmodrome

Loading…

TLE

AggiornatoSource: Space-Track

Epoca: Sep 14, 2026, 14:21 UTC

1 17705U 87028D   26257.59858778 -.00000354  00000-0  00000-0 0  9997
2 17705  10.9947 320.1427 0025179 119.8596 247.7167  0.99872923145366

Traccia SL-12 R/B(2) in tempo reale con AllMySat

Download on the App Store